Location: Wildcat Hills Observatory
(41.6350°N, 103.6812°W)
Time: 01:09:20
(UTC-06:00)

Cosmos 1634 Rocket - Visible Passes

Search period start: 25 September 2016 00:00
Search period end: 05 October 2016 00:00
Orbit: 959 x 993 km, 82.9° (Epoch: 24 September)

Date Brightness Start Highest point End Pass type
(mag) Time Alt. Az. Time Alt. Az. Time Alt. Az.
25 Sep 4.1 20:33:48 28° SSE 20:36:45 48° E 20:42:41 10° NNE visible
25 Sep 5.8 22:18:18 14° WSW 22:22:23 26° WNW 22:27:30 10° NNW visible
26 Sep 5.6 19:15:41 10° E 19:17:50 12° ENE 19:19:59 10° ENE visible
26 Sep 3.8 20:55:58 10° S 21:02:13 86° E 21:08:28 10° N visible
26 Sep 6.5 22:45:08 10° W 22:48:26 15° WNW 22:51:45 10° NNW visible
27 Sep 7.3 06:10:46 10° NE 06:11:26 10° ENE 06:12:06 10° ENE visible
27 Sep 5.0 19:38:13 10° SE 19:42:55 23° E 19:47:36 10° NE visible
27 Sep 4.6 21:21:46 10° SSW 21:27:51 53° WNW 21:33:55 10° N visible
28 Sep 4.3 20:02:24 10° SSE 20:08:10 41° E 20:13:56 10° NNE visible
28 Sep 5.6 21:48:16 10° SW 21:53:39 30° WNW 21:59:03 10° NNW visible
29 Sep 3.8 20:27:22 10° S 20:33:36 75° E 20:39:48 10° N visible
29 Sep 6.4 22:15:46 10° WSW 22:19:40 17° WNW 22:23:33 10° NNW visible
30 Sep 5.2 19:10:07 10° SE 19:14:23 20° E 19:18:38 10° NE visible
30 Sep 4.4 20:53:02 10° SSW 20:59:11 62° W 21:05:20 10° N visible
01 Oct 6.8 06:05:01 10° NNE 06:08:51 17° ENE 06:12:40 10° ESE visible
01 Oct 4.5 19:34:02 10° SSE 19:39:36 36° E 19:45:09 10° NNE visible
01 Oct 5.5 21:19:20 10° SW 21:24:57 34° WNW 21:30:33 10° N visible
02 Oct 3.9 19:58:50 10° S 20:04:59 65° E 20:11:07 10° NNE visible
02 Oct 6.3 21:46:33 10° WSW 21:50:54 20° WNW 21:55:15 10° NNW visible
03 Oct 4.2 20:24:19 10° SSW 20:30:31 71° W 20:36:44 10° N visible
03 Oct 6.9 22:16:14 10° WNW 22:17:05 10° WNW 22:17:55 10° NW visible
04 Oct 6.9 05:36:49 10° NNE 05:40:04 14° ENE 05:43:18 10° E visible
04 Oct 4.7 19:05:43 10° SE 19:11:03 31° E 19:16:20 10° NNE visible
04 Oct 5.2 20:50:28 10° SW 20:56:15 40° WNW 21:02:01 10° N visible
